Location: *
(34.8620°S, 39.3380°E)
Time: 19:19:28
(UTC+00:00)

Lacrosse 4 Rocket - Pass Details

Date: 30 November 2021
Orbit: 535 x 620 km, 68.0° (Epoch: 24 January)

Event Time Altitude Azimuth Distance (km) Brightness Sun altitude
Rises 19:07:43 0° 207° (SSW) 2,738 6.2 -26.2°
Reaches altitude 10° 19:09:56 10° 208° (SSW) 1,829 5.0 -26.4°
Enters shadow 19:12:56 47° 217° (SW) 726 2.2 -26.8°
